Home > Weather > Abbotsford > Past weeks

Flag for Canada Past Weather in Abbotsford, British Columbia, Canada — Yesterday and Last 2 Weeks

Now
72 °F

Scattered clouds.


Feels Like: 77 °F
Forecast: 60 / 88 °F
Wind: 3 mph from Southwest

Location: Abbotsford

Current Time: Aug 24, 2016 at 9:54:03 PM

Latest Report: Aug 24, 2016 at 9:00 PM


Visibility: 15 mi

Pressure: 30.13 "Hg

Humidity: 50%

Dew Point: 52 °F

Location of AbbotsfordLocation

Past Weather in Abbotsford — Graph

°F

Abbotsford Temperature Yesterday

Maximum temperature yesterday: 79 °F (at 3:00 PM)
Minimum temperature yesterday: 50 °F (at 6:00 AM)
Average temperature yesterday: 65 °F

High & Low Weather Summary for the Past Weeks

 TemperatureHumidityPressure
High93 °F (Aug 18, 1:00 PM)100% (Aug 11, 4:00 AM)30.26 "Hg (Aug 11, 4:00 AM)
Low50 °F (Aug 23, 6:00 AM)17% (Aug 18, 1:00 PM)29.78 "Hg (Aug 21, 5:00 AM)
Average70 °F65%30.03 "Hg
* Reported Aug 9 8:00 PM — Aug 24 8:00 PM, Abbotsford, Weather by CustomWeather, © 2016

Note: Actual official high and low records may vary slightly from our data, if they occured in-between our weather recording intervals... More about our weather records

Advertising

Abbotsford Weather History for the Previous 24 Hours

Scroll right to see more
 ConditionsComfort  
Time TempWeatherWind HumidityBarometerVisibility
8:00 PM
Wed, Aug 24
81 °FPassing clouds.3 mph34%30.12 "Hg30 mi
7:00 PM86 °FPassing clouds.9 mph25%30.12 "Hg30 mi
6:00 PM86 °FPassing clouds.12 mph24%30.13 "Hg30 mi
5:00 PM90 °FPassing clouds.10 mph24%30.13 "Hg30 mi
4:00 PM88 °FPassing clouds.13 mph29%30.14 "Hg30 mi
3:00 PM90 °FPassing clouds.6 mph31%30.16 "Hg30 mi
2:00 PM86 °FPassing clouds.7 mph31%30.19 "Hg30 mi
1:00 PM84 °FPassing clouds.8 mph33%30.21 "Hg30 mi
12:00 PM81 °FPassing clouds.5 mph39%30.23 "Hg30 mi
11:00 AM75 °FPassing clouds.5 mph47%30.24 "Hg30 mi
10:00 AM72 °FPassing clouds.2 mph53%30.25 "Hg30 mi
9:00 AM68 °FPassing clouds.5 mph64%30.26 "Hg30 mi
8:00 AM64 °FPassing clouds.3 mph73%30.26 "Hg30 mi
7:00 AM55 °FPassing clouds.2 mph88%30.25 "Hg30 mi
6:00 AM55 °FPassing clouds.3 mph94%30.23 "Hg30 mi
5:00 AM57 °FPassing clouds.2 mph88%30.22 "Hg30 mi
4:00 AM57 °FClear.5 mph88%30.22 "Hg15 mi
3:00 AM57 °FClear.No wind88%30.21 "Hg15 mi
2:00 AM57 °FClear.2 mph94%30.20 "Hg15 mi
1:00 AM59 °FClear.3 mph82%30.19 "Hg15 mi
12:00 AM61 °FClear.No wind83%30.19 "Hg15 mi
11:00 PM
Tue, Aug 23
61 °FPassing clouds.No wind83%30.19 "Hg15 mi
10:00 PM63 °FPassing clouds.2 mph77%30.18 "Hg15 mi
9:00 PM66 °FPassing clouds.8 mph73%30.17 "Hg15 mi
Weather by CustomWeather, © 2016

See weather overviewHow to use our weather pages